Location: ?????oe
(44.4874°N, 135.7046°E)
Time: 00:43:55
(UTC+00:00)

COSMOS 2428 - Pass Details

Date: 13 December 2025
Orbit: 845 x 854 km, 70.9° (Epoch: 17 January)

Event Time Altitude Azimuth Distance (km) Brightness Sun altitude
Exits shadow 21:24:19 - 335° (NNW) 3,064 5.2 -10.5°
Reaches altitude 10° 21:25:51 10° 337° (NNW) 2,483 4.7 -10.3°
Maximum altitude 21:31:34 78° 64° (ENE) 873 2.9 -9.4°
Drops below altitude 10° 21:37:16 10° 151° (SSE) 2,473 6.0 -8.4°
Sets 21:39:42 0° 152° (SSE) 3,406 6.8 -8.0°
